<?xml version="1.0" encoding="UTF-8" standalone="no" ?>
<gpx xmlns="http://www.topografix.com/GPX/1/1" xmlns:xsi="http://www.w3.org/2001/XMLSchema-instance" xsi:schemaLocation="http://www.topografix.com/GPX/1/1 http://www.topografix.com/GPX/1/1/gpx.xsd" version="1.1" creator="VisuGPX - https://www.visugpx.com">
  <metadata>
    <name>Bizeneuille le tremblet</name>
    <desc><![CDATA[Rando Grignot]]></desc>
  </metadata>
  <trk>
    <name><![CDATA[BIZENEUILLE le Tremblet]]></name>
    <trkseg>
      <trkpt lat="46.40726" lon="2.73577">
        <ele>305</ele>
        <time>2007-01-19T09:09:52Z</time>
      </trkpt>
      <trkpt lat="46.40784" lon="2.73636">
        <ele>301</ele>
        <time>2007-01-19T09:09:52Z</time>
      </trkpt>
      <trkpt lat="46.4082" lon="2.73792">
        <ele>300</ele>
        <time>2007-01-19T09:09:52Z</time>
      </trkpt>
      <trkpt lat="46.40441" lon="2.74147">
        <ele>312</ele>
        <time>2007-01-19T09:09:52Z</time>
      </trkpt>
      <trkpt lat="46.40301" lon="2.7425">
        <ele>311</ele>
        <time>2007-01-19T09:09:52Z</time>
      </trkpt>
      <trkpt lat="46.40124" lon="2.74509">
        <ele>306</ele>
        <time>2007-01-19T09:09:52Z</time>
      </trkpt>
      <trkpt lat="46.40018" lon="2.74176">
        <ele>314</ele>
        <time>2007-01-19T09:09:52Z</time>
      </trkpt>
      <trkpt lat="46.39928" lon="2.74182">
        <ele>317</ele>
        <time>2007-01-19T09:09:52Z</time>
      </trkpt>
      <trkpt lat="46.39821" lon="2.73902">
        <ele>320</ele>
        <time>2007-01-19T09:09:52Z</time>
      </trkpt>
      <trkpt lat="46.39749" lon="2.73921">
        <ele>319</ele>
        <time>2007-01-19T09:09:52Z</time>
      </trkpt>
      <trkpt lat="46.39686" lon="2.73979">
        <ele>317</ele>
        <time>2007-01-19T09:09:52Z</time>
      </trkpt>
      <trkpt lat="46.39564" lon="2.74082">
        <ele>317</ele>
        <time>2007-01-19T09:09:52Z</time>
      </trkpt>
      <trkpt lat="46.39501" lon="2.74121">
        <ele>317</ele>
        <time>2007-01-19T09:09:52Z</time>
      </trkpt>
      <trkpt lat="46.39212" lon="2.74248">
        <ele>317</ele>
        <time>2007-01-19T09:09:52Z</time>
      </trkpt>
      <trkpt lat="46.39005" lon="2.74253">
        <ele>318</ele>
        <time>2007-01-19T09:09:52Z</time>
      </trkpt>
      <trkpt lat="46.38947" lon="2.74253">
        <ele>318</ele>
        <time>2007-01-19T09:09:52Z</time>
      </trkpt>
      <trkpt lat="46.38884" lon="2.74239">
        <ele>316</ele>
        <time>2007-01-19T09:09:52Z</time>
      </trkpt>
      <trkpt lat="46.38803" lon="2.74122">
        <ele>322</ele>
        <time>2007-01-19T09:09:52Z</time>
      </trkpt>
      <trkpt lat="46.38704" lon="2.74082">
        <ele>319</ele>
        <time>2007-01-19T09:09:52Z</time>
      </trkpt>
      <trkpt lat="46.38714" lon="2.73998">
        <ele>322</ele>
        <time>2007-01-19T09:09:52Z</time>
      </trkpt>
      <trkpt lat="46.38732" lon="2.73887">
        <ele>325</ele>
        <time>2007-01-19T09:09:52Z</time>
      </trkpt>
      <trkpt lat="46.3871" lon="2.73822">
        <ele>326</ele>
        <time>2007-01-19T09:09:52Z</time>
      </trkpt>
      <trkpt lat="46.38633" lon="2.73893">
        <ele>322</ele>
        <time>2007-01-19T09:09:52Z</time>
      </trkpt>
      <trkpt lat="46.38534" lon="2.73957">
        <ele>325</ele>
        <time>2007-01-19T09:09:52Z</time>
      </trkpt>
      <trkpt lat="46.3848" lon="2.74035">
        <ele>327</ele>
        <time>2007-01-19T09:09:52Z</time>
      </trkpt>
      <trkpt lat="46.38201" lon="2.74117">
        <ele>328</ele>
        <time>2007-01-19T09:09:52Z</time>
      </trkpt>
      <trkpt lat="46.38065" lon="2.74266">
        <ele>326</ele>
        <time>2007-01-19T09:09:52Z</time>
      </trkpt>
      <trkpt lat="46.37907" lon="2.74356">
        <ele>336</ele>
        <time>2007-01-19T09:09:52Z</time>
      </trkpt>
      <trkpt lat="46.37723" lon="2.74413">
        <ele>346</ele>
        <time>2007-01-19T09:09:52Z</time>
      </trkpt>
      <trkpt lat="46.37735" lon="2.74647">
        <ele>347</ele>
        <time>2007-01-19T09:09:52Z</time>
      </trkpt>
      <trkpt lat="46.3773" lon="2.74783">
        <ele>348</ele>
        <time>2007-01-19T09:09:52Z</time>
      </trkpt>
      <trkpt lat="46.37757" lon="2.7494">
        <ele>342</ele>
        <time>2007-01-19T09:09:52Z</time>
      </trkpt>
      <trkpt lat="46.37729" lon="2.75089">
        <ele>341</ele>
        <time>2007-01-19T09:09:52Z</time>
      </trkpt>
      <trkpt lat="46.37675" lon="2.75004">
        <ele>345</ele>
        <time>2007-01-19T09:09:52Z</time>
      </trkpt>
      <trkpt lat="46.37631" lon="2.74945">
        <ele>349</ele>
        <time>2007-01-19T09:09:52Z</time>
      </trkpt>
      <trkpt lat="46.37523" lon="2.74788">
        <ele>357</ele>
        <time>2007-01-19T09:09:52Z</time>
      </trkpt>
      <trkpt lat="46.3732" lon="2.74917">
        <ele>364</ele>
        <time>2007-01-19T09:09:52Z</time>
      </trkpt>
      <trkpt lat="46.37195" lon="2.74877">
        <ele>366</ele>
        <time>2007-01-19T09:09:52Z</time>
      </trkpt>
      <trkpt lat="46.37128" lon="2.74545">
        <ele>360</ele>
        <time>2007-01-19T09:09:52Z</time>
      </trkpt>
      <trkpt lat="46.37116" lon="2.74194">
        <ele>354</ele>
        <time>2007-01-19T09:09:52Z</time>
      </trkpt>
      <trkpt lat="46.3713" lon="2.74038">
        <ele>350</ele>
        <time>2007-01-19T09:09:52Z</time>
      </trkpt>
      <trkpt lat="46.37825" lon="2.73413">
        <ele>355</ele>
        <time>2007-01-19T09:09:52Z</time>
      </trkpt>
      <trkpt lat="46.37979" lon="2.73277">
        <ele>349</ele>
        <time>2007-01-19T09:09:52Z</time>
      </trkpt>
      <trkpt lat="46.38074" lon="2.73115">
        <ele>348</ele>
        <time>2007-01-19T09:09:52Z</time>
      </trkpt>
      <trkpt lat="46.38313" lon="2.72747">
        <ele>345</ele>
        <time>2007-01-19T09:09:52Z</time>
      </trkpt>
      <trkpt lat="46.38529" lon="2.72852">
        <ele>344</ele>
        <time>2007-01-19T09:09:52Z</time>
      </trkpt>
      <trkpt lat="46.38645" lon="2.73035">
        <ele>343</ele>
        <time>2007-01-19T09:09:52Z</time>
      </trkpt>
      <trkpt lat="46.3878" lon="2.73147">
        <ele>340</ele>
        <time>2007-01-19T09:09:52Z</time>
      </trkpt>
      <trkpt lat="46.38794" lon="2.72984">
        <ele>339</ele>
        <time>2007-01-19T09:09:52Z</time>
      </trkpt>
      <trkpt lat="46.38962" lon="2.7242">
        <ele>337</ele>
        <time>2007-01-19T09:09:52Z</time>
      </trkpt>
      <trkpt lat="46.38935" lon="2.72355">
        <ele>338</ele>
        <time>2007-01-19T09:09:52Z</time>
      </trkpt>
      <trkpt lat="46.38954" lon="2.72257">
        <ele>337</ele>
        <time>2007-01-19T09:09:52Z</time>
      </trkpt>
      <trkpt lat="46.39134" lon="2.72278">
        <ele>334</ele>
        <time>2007-01-19T09:09:52Z</time>
      </trkpt>
      <trkpt lat="46.3934" lon="2.72416">
        <ele>328</ele>
        <time>2007-01-19T09:09:52Z</time>
      </trkpt>
      <trkpt lat="46.3934" lon="2.72526">
        <ele>328</ele>
        <time>2007-01-19T09:09:52Z</time>
      </trkpt>
      <trkpt lat="46.39285" lon="2.72656">
        <ele>329</ele>
        <time>2007-01-19T09:09:52Z</time>
      </trkpt>
      <trkpt lat="46.39437" lon="2.73132">
        <ele>323</ele>
        <time>2007-01-19T09:09:52Z</time>
      </trkpt>
      <trkpt lat="46.39611" lon="2.73335">
        <ele>323</ele>
        <time>2007-01-19T09:09:52Z</time>
      </trkpt>
      <trkpt lat="46.39705" lon="2.73413">
        <ele>324</ele>
        <time>2007-01-19T09:09:52Z</time>
      </trkpt>
      <trkpt lat="46.39719" lon="2.73465">
        <ele>324</ele>
        <time>2007-01-19T09:09:52Z</time>
      </trkpt>
      <trkpt lat="46.39899" lon="2.73421">
        <ele>322</ele>
        <time>2007-01-19T09:09:52Z</time>
      </trkpt>
      <trkpt lat="46.40695" lon="2.73499">
        <ele>306</ele>
        <time>2007-01-19T09:09:52Z</time>
      </trkpt>
      <trkpt lat="46.40762" lon="2.73525">
        <ele>305</ele>
        <time>2007-01-19T09:09:52Z</time>
      </trkpt>
    </trkseg>
  </trk>
</gpx>